Starlink 6047

operational
NORAD ID: 56460 Int'l Des: 2023-064 Owner: SPXS Country: US Constellation: starlink
LEOCIRCULAR

About Starlink 6047

Description loading...

Live Position

Loading 3D Globe...

Upcoming Passes

Altitude History

Altitude vs Time

uPlot chart will show altitude changes over time

Two-Line Element Set

1 56460U 23064N 25257.35114976 .00000256 00000-0 29227-4 0 9992
2 56460 69.9970 229.0090 0003210 267.1689 92.9103 14.98332261128835
Epoch: Sep 14, 2025 • Age: 23 hours

Current Status

Altitude 576.3 km
Velocity 7.58 km/s
Sub-Earth Point 29.84°N, 72.69°W
Launch Date May 10, 2023
Age 2.3 years
Type internet

Technical Details

Classification Payload
Mass 305.00 kg
Dry Mass 290.00 kg
Total Mass 305.00 kg
Length 0.20 m
Diameter 2.80 m
Span 9.00 m
Shape Box + pan
Manufacturer SPXS
Bus Type Starlink
Phase Status In Orbit
Owner/State SPXS/US

Large Constellations

Loading constellations...